Weather observations for the past three days for
Belmar-Farmingdale
Metric (Imperial)
Date Time (edt) Wind (kph) Vis. (km) Weather Sky Cond. Temperature (ºC) Relative Humidity Wind Chill (°C) Heat Index (°C) Pressure Precipitation (cm)
Air Dwpt 6 hour altimeter (cm) sea level (mb) 1 hr 3 hr 6 hr
Max. Min.
21 12:56 SW 9 0.00 Fair CLR 33.9 19.4 42% 36 76.63 1021.6
21 11:56 W 17 0.00 Fair CLR 33.3 19.4 44% 35 76.68 1022.3
21 10:56 W 17 0.00 Fair CLR 32.2 20.6 50% 35 76.71 1022.5
21 09:56 W 15 0.00 Fair CLR 30 20.6 57% 32 76.71 1022.7
21 08:56 W 15 0.00 Fair CLR 28.3 20.6 63% 30 76.76 1023.0
21 07:56 SW 13 0.00 Fair CLR 25.6 20 25.6 21.1 71% 27 76.78 1023.5
21 06:56 SW 11 0.00 Fair CLR 22.2 19.4 84% 76.78 1023.6
21 05:56 SW 11 0.00 Fair CLR 21.1 18.9 87% 76.78 1023.5
21 04:56 W 13 0.00 Fair CLR 21.7 18.9 84% 76.78 1023.5
21 03:56 W 13 0.00 Fair CLR 21.7 18.9 84% 76.78 1023.6
21 02:56 SW 13 0.00 Fair CLR 22.2 18.3 79% 76.78 1023.7
21 01:56 SW 9 0.00 Mostly Cloudy BKN065 22.2 18.3 27.8 22.2 79% 76.81 1023.9
21 00:56 SW 11 0.00 Fair CLR 22.8 18.3 76% 76.81 1024.0
20 23:56 SW 11 0.00 Fair CLR 23.9 18.9 74% 25 76.84 1024.3
20 22:56 S 15 0.00 Fair CLR 24.4 19.4 74% 25 76.86 1024.4
20 21:56 S 11 0.00 Fair CLR 25.6 19.4 69% 27 76.86 1024.4
20 20:56 S 11 0.00 Fair CLR 26.7 19.4 64% 28 76.81 1023.7
20 19:56 S 7 0.00 Fair CLR 27.8 21.1 32.8 27.8 67% 30 76.78 1023.5
20 18:56 Vrbl 11 0.00 Fair CLR 28.3 21.1 65% 31 76.78 1023.6
20 17:56 S 13 0.00 Fair CLR 28.9 21.1 63% 31 76.81 1023.8
20 16:56 SE 19 0.00 Fair CLR 30 20.6 57% 32 76.86 1024.5
20 15:56 S 19 0.00 Fair CLR 30.6 20.6 55% 33 76.91 1025.1
20 14:56 Vrbl 7 0.00 Partly Cloudy SCT047 32.2 20.6 50% 35 76.94 1025.6
20 13:56 Vrbl 6 0.00 Fair CLR 32.2 19.4 33.3 23.3 47% 34 76.99 1026.2
20 12:56 SW 15 0.00 Fair CLR 31.7 20 50% 34 77.01 1026.7
20 11:56 SW 13 0.00 Fair CLR 30 19.4 53% 32 77.06 1027.3
20 10:56 SW 13 0.00 Fair CLR 29.4 20 57% 31 77.09 1027.5
20 09:56 W 15 0.00 Fair CLR 28.3 20 61% 30 77.11 1027.9 0.13
20 08:56 SW 13 0.00 Fair CLR 26.1 20 69% 27 77.09 1027.8
20 07:56 SW 13 16.09 Fair CLR 23.3 19.4 23.3 18.9 79% 77.11 1027.8
20 06:56 SW 9 16.09 Fair CLR 20.6 18.3 87% 77.09 1027.5
20 05:56 SW 9 16.09 Fair CLR 19.4 18.3 93% 77.06 1027.2
20 04:56 SW 9 16.09 Fair CLR 19.4 17.8 91% 77.06 1027.2
20 03:56 SW 7 16.09 Fair CLR 20 17.8 87% 77.06 1027.3
20 02:56 SW 7 16.09 Fair CLR 20 17.8 87% 77.04 1027.0
20 01:56 SW 7 0.00 Fair CLR 20.6 17.8 25 20.6 84% 77.06 1027.3
20 00:56 SW 11 0.00 Fair CLR 21.1 17.8 82% 77.09 1027.5
19 23:56 SW 9 0.00 Fair CLR 21.7 17.8 79% 77.09 1027.7
19 22:56 S 11 0.00 Fair CLR 23.3 17.8 71% 77.14 1028.1
19 21:56 SW 11 0.00 Fair CLR 23.3 17.8 71% 77.09 1027.6
19 20:56 S 9 0.00 Fair CLR 23.9 18.9 74% 25 77.06 1027.2
19 19:56 S 11 0.00 Fair CLR 25 19.4 29.4 25 71% 26 77.06 1027.2
19 18:56 SE 15 0.00 Fair CLR 26.7 20 67% 28 77.04 1026.9
19 17:56 SE 17 0.00 Fair CLR 28.3 16.7 49% 29 77.01 1026.7
19 16:56 S 22 0.00 Fair CLR 28.3 16.7 49% 29 77.04 1027.1
19 15:56 SE 19 0.00 Fair CLR 28.3 18.3 55% 29 77.09 1027.5
19 14:56 S 17 0.00 Fair CLR 28.9 18.9 55% 30 77.09 1027.5
19 13:56 SE 15 0.00 Fair CLR 28.9 19.4 31.1 22.8 57% 30 77.09 1027.8
19 12:56 S 15 0.00 Fair CLR 30 20.6 57% 32 77.11 1028.0
19 11:56 S 13 0.00 Fair CLR 28.9 19.4 57% 30 77.14 1028.3
19 10:56 NW 9 0.00 Fair CLR 28.3 20.6 63% 30 77.14 1028.3
19 09:56 SW 13 0.00 Fair CLR 27.8 20 63% 29 77.17 1028.7
19 08:56 SW 11 0.00 Fair CLR 24.4 19.4 74% 25 77.19 1029.0
19 07:56 SW 13 16.09 Fair CLR 22.8 19.4 22.8 19.4 81% 77.17 1028.7
19 06:56 S 9 16.09 Fair CLR 21.1 18.9 87% 77.17 1028.5
19 05:56 S 6 16.09 Fair CLR 20 17.8 87% 77.11 1028.0
19 04:56 SW 6 16.09 Fair CLR 20 17.8 87% 77.09 1027.5
19 03:56 S 6 16.09 Mostly Cloudy BKN050 20 17.2 84% 77.04 1026.8
19 02:56 SW 7 16.09 Partly Cloudy SCT049 21.1 17.2 79% 77.01 1026.5
19 01:56 SW 7 16.09 Fair CLR 21.1 17.2 26.1 21.1 79% 77.01 1026.4
19 00:56 S 9 0.00 Fair CLR 21.1 17.8 82% 77.01 1026.6
18 23:56 SW 9 0.00 Fair CLR 21.7 17.2 76% 77.01 1026.7
18 22:56 Vrbl 9 0.00 Fair CLR 22.8 16.1 66% 76.99 1026.3
18 21:56 S 11 0.00 Fair CLR 23.3 15 60% 76.94 1025.7
18 20:56 S 11 0.00 Fair CLR 24.4 14.4 54% 26 76.89 1025.0
18 19:56 S 11 0.00 Fair CLR 26.1 16.7 29.4 26.1 56% 27 76.86 1024.6
18 18:56 SE 11 0.00 Fair CLR 26.7 18.3 60% 28 76.84 1024.1
18 17:56 SE 20 0.00 Fair CLR 27.8 19.4 60% 29 76.81 1023.8
18 16:56 S 15 0.00 Fair CLR 28.9 19.4 57% 30 76.81 1024.0
18 15:56 SE 19 0.00 Fair CLR 28.9 20.6 61% 31 76.84 1024.1
18 14:56 SE 19 G 31 0.00 Fair CLR 28.9 20.6 61% 31 76.86 1024.4
18 13:56 SE 19 G 28 0.00 Fair CLR 29.4 21.1 30.6 22.8 61% 32 76.89 1024.9
Date Time (edt) Wind (kph) Vis. (km) Weather Sky Cond. Air Dwpt Max. Min. Relative Humidity Wind Chill (°C) Heat Index (°C) altimeter (cm) sea level (mb) 1 hr 3 hr 6 hr
6 hour
Temperature (ºC) Pressure Precipitation (cm)